Location: Pedro
(43.9050°N, 104.3408°W)
Time: 00:41:56
(UTC+00:00)

Tiangong - Visible Passes

Search period start: 27 January 2022 00:00
Search period end: 06 February 2022 00:00
Orbit: 382 x 387 km, 41.5° (Epoch: 26 January)

Date Brightness Start Highest point End Pass type
(mag) Time Alt. Az. Time Alt. Az. Time Alt. Az.
27 Jan 3.4 01:28:50 10° S 01:30:28 13° SSE 01:30:28 13° SSE visible
28 Jan 3.1 02:04:21 10° SW 02:05:57 22° SSW 02:05:57 22° SSW visible
29 Jan 2.9 01:05:05 10° SSW 01:07:32 20° SSE 01:09:08 15° ESE visible
29 Jan 4.3 02:40:55 10° WSW 02:41:21 13° WSW 02:41:21 13° WSW visible
30 Jan 1.8 01:41:16 10° WSW 01:44:16 39° SSE 01:44:28 39° SSE visible
31 Jan 2.5 00:41:43 10° SW 00:44:32 29° SSE 00:47:22 10° E visible
31 Jan 3.0 02:18:00 10° WSW 02:19:45 29° WSW 02:19:45 29° WSW visible
01 Feb 1.6 01:18:12 10° WSW 01:21:18 49° S 01:22:48 25° ESE visible
01 Feb 4.7 02:54:52 10° W 02:55:00 11° W 02:55:00 11° W visible
02 Feb 1.5 01:55:01 10° W 01:58:01 53° SSW 01:58:01 53° SSW visible
03 Feb 1.6 00:55:08 10° WSW 00:58:15 55° S 01:01:03 12° E visible
03 Feb 3.6 02:31:53 10° W 02:33:15 21° WSW 02:33:15 21° WSW visible
04 Feb 1.8 01:31:56 10° W 01:35:00 47° S 01:36:18 28° SE visible
05 Feb 2.8 02:08:54 10° W 02:11:35 27° SSW 02:11:35 27° SSW visible
